Location: Unspecified
(0.0000°N, 0.0000°E)
Time: 09:00:46
(UTC+00:00)

X-37B - Pass Details

Date: 22 November 2020
Orbit: 384 x 389 km, 45.0° (Epoch: 12 November)

Event Time Altitude Azimuth Distance (km) Brightness Sun altitude
Exits shadow 04:54:11 12° 338° (NNW) 1,297 2.8 -12.2°
Maximum altitude 04:56:54 40° 48° (NE) 577 1.7 -11.6°
Drops below altitude 10° 04:59:55 10° 119° (ESE) 1,406 4.9 -10.8°
Sets 05:02:03 0° 127° (SE) 2,263 6.1 -10.3°
